This demonstration page uses our WeatherBlox Daily Observations layout. Learn more.

Left ArrowRight Arrow

34.02893, -84.19858

Hourly Observations for January 16, 2018

Temp ( °F °C ) Dew Point ( °F °C ) Humidity (%) Winds ( mph kmh ) Pressure ( in mb ) Visibility ( mi km ) Precip ( " mm )
12:53 am 00:53 Clear 30 -1.1 21 -6.1 69 69 Calm 30.45 1031 10 16 0.00 0.00
1:53 am 01:53 Clear 27 -2.8 21 -6.1 78 78 Calm 30.45 1031 10 16 0.00 0.00
2:53 am 02:53 Clear 27 -2.8 21 -6.1 78 78 Calm 30.45 1031 10 16 0.00 0.00
3:53 am 03:53 Clear 26 -3.3 21 -6.1 81 81 Calm 30.43 1031 10 16 0.00 0.00
4:53 am 04:53 Clear 26 -3.3 21 -6.1 81 81 Calm 30.43 1031 10 16 0.00 0.00
5:53 am 05:53 Clear 25 -3.9 21 -6.1 85 85 Calm 30.43 1031 10 16 0.00 0.00
6:53 am 06:53 Clear 28 -2.2 22 -5.6 78 78 SSE 5 7 30.42 1030 10 16 0.00 0.00
7:53 am 07:53 Sunny 27 -2.8 21 -6.1 78 78 Calm 30.44 1031 10 16 0.00 0.00
8:53 am 08:53 Sunny 34 1.1 26 -3.3 73 73 Calm 30.47 1032 10 16 0.00 0.00
9:53 am 09:53 Sunny 38 3.3 24 -4.4 57 57 WNW 3 6 30.48 1032 10 16 0.00 0.00
10:53 am 10:53 Sunny 41 5 25 -3.9 53 53 VRB 3 6 30.46 1032 10 16 0.00 0.00
11:53 am 11:53 Sunny 45 7.2 26 -3.3 48 48 SW 7 11 30.43 1031 10 16 0.00 0.00
12:53 pm 12:53 Sunny 46 7.8 27 -2.8 47 47 SW 12 19 30.41 1030 10 16 0.00 0.00
1:53 pm 13:53 Partly Cloudy 47 8.3 28 -2.2 48 48 VRB 7 11 30.39 1029 10 16 0.00 0.00
2:53 pm 14:53 Mostly Cloudy 49 9.4 29 -1.7 46 46 SSW 8 13 30.37 1028 10 16 0.00 0.00
3:53 pm 15:53 Cloudy 47 8.3 30 -1.1 52 52 WSW 7 11 30.35 1028 10 16 0.00 0.00
4:53 pm 16:53 Cloudy 47 8.3 32 0 56 56 W 8 13 30.35 1028 10 16 0.00 0.00
5:53 pm 17:53 Cloudy 44 6.7 31 -0.6 60 60 WNW 14 22 30.37 1028 10 16 0.00 0.00
6:53 pm 18:53 Cloudy 38 3.3 29 -1.7 70 70 NW 13 20 30.39 1029 10 16 0.00 0.00
7:32 pm 19:32 Cloudy 35 1.7 30 -1.1 82 82 WNW 9 15 30.42 1030 9 14 0.00 0.00
7:53 pm 19:53 Cloudy 33 0.6 28 -2.2 82 82 NW 17 28 30.42 1030 8 13 0.00 0.00
8:53 pm 20:53 Cloudy with Light Snow 30 -1.1 27 -2.8 88 88 NW 8 13 30.42 1030 3 4 0.00 0.03
9:53 pm 21:53 Cloudy with Haze 29 -1.7 24 -4.4 82 82 NW 14 22 30.43 1030 3 4 0.00 0.03
9:56 pm 21:56 Cloudy with Mist and Fog 28 -2.2 24 -4.4 85 85 NW 17 28 30.45 1031 4 6 0.00 0.00
10:53 pm 22:53 Cloudy with Haze 27 -2.8 22 -5.6 81 81 NW 10 17 30.42 1030 4 6 0.00 0.00
11:00 pm 23:00 Cloudy 27 -2.8 21 -6.1 78 78 NW 13 20 30.42 1030 10 16 0.00 0.00
11:53 pm 23:53 Cloudy 25 -3.9 20 -6.7 81 81 WNW 15 24 30.41 1030 8 13 0.00 0.00

Powered by AerisWeather